QPF
0.00 0.00 0.00 0.00 0.00 0.00 0.00 0.00 0.00 0.00 0.00 0.00 0.00 0.00 0.00 0.00 0.00 0.00 0.00 0.00 0.00 0.00 0.00 0.00 0.00 0.00 0.00 0.00 0.00 0.00 0.00 0.00 0.00 0.00 0.00 0.00 0.00 0.00 0.00 0.00 0.02 0.11 0.08
0.00 0.00 0.00 0.00 0.00 0.00 0.00 0.00 0.00 0.00 0.00 0.00 0.00 0.00 0.00 0.00 0.00 0.00 0.00 0.00 0.00 0.00 0.00 0.00 0.00 0.00 0.00 0.00 0.00 0.00 0.00 0.00 0.00 0.00 0.00 0.00 0.00 0.00 0.00 0.00 0.01 0.06 0.13
0.00 0.00 0.00 0.00 0.00 0.00 0.00 0.00 0.00 0.00 0.00 0.00 0.00 0.00 0.00 0.00 0.00 0.00 0.00 0.00 0.00 0.00 0.00 0.00 0.00 0.00 0.00 0.00 0.00 0.00 0.00 0.00 0.00 0.00 0.00 0.00 0.00 0.00 0.00 0.01 0.02 0.06 0.09
0.00 0.00 0.00 0.00 0.00 0.00 0.00 0.00 0.00 0.00 0.00 0.00 0.00 0.00 0.00 0.00 0.00 0.00 0.00 0.00 0.00 0.00 0.00 0.00 0.00 0.00 0.00 0.00 0.00 0.00 0.00 0.00 0.00 0.00 0.00 0.00 0.00 0.00 0.00 0.00 0.04 0.05 0.06
0.00 0.00 0.00 0.00 0.00 0.00 0.00 0.00 0.00 0.00 0.00 0.00 0.00 0.00 0.00 0.00 0.00 0.00 0.00 0.00 0.00 0.00 0.00 0.00 0.00 0.00 0.00 0.00 0.00 0.00 0.00 0.00 0.00 0.00 0.00 0.00 0.00 0.00 0.00 0.00 0.00 0.06 0.10
0.00 0.00 0.00 0.00 0.00 0.00 0.00 0.00 0.00 0.00 0.00 0.00 0.00 0.00 0.00 0.00 0.00 0.00 0.00 0.00 0.00 0.00 0.00 0.00 0.00 0.00 0.00 0.00 0.00 0.00 0.00 0.00 0.00 0.00 0.00 0.00 0.00 0.00 0.00 0.00 0.00 0.00 0.02
0.00 0.00 0.00 0.00 0.00 0.00 0.00 0.00 0.00 0.00 0.00 0.00 0.00 0.00 0.00 0.00 0.00 0.00 0.00 0.00 0.00 0.00 0.00 0.00 0.00 0.00 0.00 0.00 0.00 0.00 0.00 0.00 0.00 0.00 0.00 0.00 0.00 0.00 0.00 0.00 0.00 0.00 0.01
0.00 0.00 0.00 0.00 0.00 0.00 0.00 0.00 0.00 0.00 0.00 0.00 0.00 0.00 0.00 0.00 0.00 0.00 0.00 0.00 0.00 0.00 0.00 0.00 0.00 0.00 0.00 0.00 0.00 0.00 0.00 0.00 0.00 0.00 0.00 0.00 0.00 0.00 0.00 0.00 0.00 0.00 0.01
0.00 0.00 0.00 0.00 0.00 0.00 0.00 0.00 0.00 0.00 0.00 0.00 0.00 0.00 0.00 0.00 0.00 0.00 0.00 0.00 0.00 0.00 0.00 0.00 0.00 0.00 0.00 0.00 0.00 0.00 0.00 0.00 0.00 0.00 0.00 0.00 0.00 0.00 0.00 0.00 0.00 0.00 0.00
0.00 0.00 0.00 0.00 0.00 0.00 0.00 0.00 0.00 0.00 0.00 0.00 0.00 0.00 0.00 0.00 0.00 0.00 0.00 0.00 0.00 0.00 0.00 0.00 0.00 0.00 0.00 0.00 0.00 0.00 0.00 0.00 0.00 0.00 0.00 0.00 0.00 0.00 0.00 0.00 0.00 0.00 0.00
0.00 0.00 0.00 0.00 0.00 0.00 0.00 0.00 0.00 0.00 0.00 0.00 0.00 0.00 0.00 0.00 0.00 0.00 0.00 0.00 0.00 0.00 0.00 0.00 0.00 0.00 0.00 0.00 0.00 0.00 0.00 0.00 0.00 0.00 0.00 0.00 0.00 0.00 0.00 0.00 0.00 0.00 0.00
0.00 0.00 0.00 0.00 0.00 0.00 0.00 0.00 0.00 0.00 0.00 0.00 0.00 0.00 0.00 0.00 0.00 0.00 0.00 0.00 0.00 0.00 0.00 0.00 0.00 0.00 0.00 0.00 0.00 0.00 0.00 0.00 0.00 0.00 0.00 0.00 0.00 0.00 0.00 0.00 0.00 0.00 0.00
0.00 0.00 0.00 0.00 0.00 0.00 0.00 0.00 0.00 0.00 0.00 0.00 0.00 0.00 0.00 0.00 0.00 0.00 0.00 0.00 0.00 0.00 0.00 0.00 0.00 0.00 0.00 0.00 0.00 0.00 0.00 0.00 0.00 0.00 0.00 0.00 0.00 0.00 0.00 0.00 0.00 0.00 0.00
0.00 0.00 0.00 0.00 0.00 0.00 0.00 0.00 0.00 0.00 0.00 0.00 0.00 0.00 0.00 0.00 0.00 0.00 0.00 0.00 0.00 0.00 0.00 0.00 0.00 0.00 0.00 0.00 0.00 0.00 0.00 0.00 0.00 0.00 0.00 0.00 0.00 0.00 0.00 0.00 0.00 0.00 0.02
0.00 0.00 0.00 0.00 0.00 0.00 0.00 0.00 0.00 0.00 0.00 0.00 0.00 0.00 0.00 0.00 0.00 0.00 0.00 0.00 0.00 0.00 0.00 0.00 0.00 0.00 0.00 0.00 0.00 0.00 0.00 0.00 0.00 0.00 0.00 0.00 0.00 0.00 0.00 0.00 0.00 0.00 0.00
0.00 0.00 0.00 0.00 0.00 0.00 0.00 0.00 0.00 0.00 0.00 0.00 0.00 0.00 0.00 0.00 0.00 0.00 0.00 0.00 0.00 0.00 0.00 0.00 0.00 0.00 0.00 0.00 0.00 0.00 0.00 0.00 0.00 0.00 0.00 0.00 0.00 0.00 0.00 0.00 0.00 0.00 0.00
0.00 0.00 0.00 0.00 0.00 0.00 0.00 0.00 0.00 0.00 0.00 0.00 0.00 0.00 0.00 0.00 0.00 0.00 0.00 0.00 0.00 0.00 0.00 0.00 0.00 0.00 0.00 0.00 0.00 0.00 0.01 0.00 0.00 0.00 0.00 0.00 0.00 0.00 0.00 0.00 0.00 0.00 0.00
0.00 0.00 0.00 0.00 0.00 0.00 0.00 0.00 0.00 0.00 0.00 0.00 0.00 0.00 0.00 0.00 0.00 0.00 0.00 0.00 0.00 0.00 0.00 0.00 0.00 0.00 0.00 0.00 0.00 0.02 0.03 0.00 0.00 0.00 0.00 0.00 0.00 0.01 0.01 0.02 0.04 0.00 0.00
0.00 0.00 0.00 0.00 0.00 0.00 0.00 0.00 0.00 0.00 0.00 0.00 0.00 0.00 0.00 0.00 0.00 0.00 0.00 0.00 0.00 0.00 0.00 0.00 0.00 0.00 0.00 0.00 0.00 0.03 0.04 0.00 0.00 0.00 0.00 0.00 0.00 0.00 0.02 0.02 0.02 0.03 0.01
0.00 0.00 0.00 0.00 0.00 0.00 0.00 0.00 0.00 0.00 0.00 0.00 0.00 0.00 0.00 0.00 0.00 0.00 0.00 0.00 0.00 0.00 0.00 0.00 0.00 0.00 0.00 0.00 0.02 0.07 0.03 0.01 0.00 0.00 0.00 0.00 0.02 0.03 0.01 0.05 0.04 0.01 0.00
0.00 0.00 0.00 0.00 0.00 0.00 0.00 0.00 0.00 0.00 0.00 0.00 0.00 0.00 0.00 0.00 0.00 0.00 0.00 0.00 0.00 0.00 0.00 0.00 0.00 0.00 0.00 0.01 0.04 0.04 0.01 0.00 0.00 0.00 0.00 0.02 0.05 0.02 0.03 0.03 0.03 0.02 0.00
0.00 0.00 0.00 0.00 0.00 0.00 0.00 0.00 0.00 0.00 0.00 0.00 0.00 0.00 0.00 0.00 0.00 0.00 0.00 0.00 0.00 0.00 0.00 0.00 0.00 0.00 0.04 0.05 0.01 0.00 0.00 0.00 0.01 0.00 0.00 0.03 0.06 0.11 0.07 0.05 0.02 0.05 0.11
0.00 0.00 0.00 0.00 0.00 0.00 0.00 0.00 0.00 0.00 0.00 0.00 0.00 0.00 0.00 0.00 0.00 0.00 0.00 0.00 0.00 0.00 0.00 0.00 0.00 0.01 0.08 0.06 0.02 0.01 0.00 0.00 0.04 0.01 0.00 0.02 0.07 0.11 0.12 0.18 0.08 0.07 0.14
0.00 0.00 0.00 0.00 0.00 0.00 0.00 0.00 0.00 0.00 0.00 0.00 0.00 0.00 0.00 0.00 0.00 0.00 0.00 0.00 0.00 0.00 0.00 0.01 0.01 0.05 0.08 0.04 0.00 0.00 0.00 0.00 0.01 0.04 0.04 0.04 0.10 0.12 0.17 0.18 0.09 0.05 0.09
0.00 0.00 0.00 0.00 0.00 0.00 0.00 0.00 0.00 0.00 0.00 0.00 0.00 0.00 0.00 0.00 0.00 0.00 0.00 0.00 0.00 0.00 0.00 0.00 0.02 0.07 0.04 0.01 0.00 0.00 0.00 0.00 0.01 0.01 0.05 0.11 0.14 0.16 0.24 0.24 0.14 0.05 0.01
0.00 0.00 0.00 0.00 0.00 0.00 0.00 0.00 0.00 0.00 0.00 0.00 0.00 0.00 0.00 0.00 0.00 0.00 0.00 0.00 0.00 0.03 0.07 0.01 0.04 0.04 0.02 0.00 0.00 0.00 0.00 0.01 0.01 0.03 0.07 0.15 0.16 0.15 0.22 0.23 0.17 0.08 0.01
MSLP
1002.40 1004.59 1006.19 1006.79 1007.26 1007.78 1008.10 1008.48 1008.81 1009.12 1009.41 1009.80 1010.14 1010.39 1010.66 1011.06 1011.47 1011.78 1012.10 1012.24 1012.55 1012.65 1012.87 1013.02 1013.16 1013.27 1013.33 1013.29 1013.41 1013.44 1013.48 1013.44 1013.44 1013.33 1013.40 1013.32 1013.32 1013.37 1013.43 1013.46 1013.57 1013.41 1013.82
1002.23 1004.50 1005.96 1006.68 1007.25 1007.85 1008.05 1008.50 1008.96 1009.19 1009.60 1009.89 1010.23 1010.50 1010.82 1011.12 1011.45 1011.87 1012.23 1012.46 1012.63 1012.83 1012.92 1013.08 1013.27 1013.43 1013.51 1013.58 1013.67 1013.78 1013.79 1013.77 1013.71 1013.57 1013.51 1013.44 1013.33 1013.41 1013.54 1013.59 1013.71 1013.57 1014.02
1002.64 1004.73 1006.09 1006.69 1007.19 1007.78 1008.22 1008.64 1009.00 1009.46 1009.80 1010.13 1010.45 1010.71 1011.09 1011.37 1011.65 1011.95 1012.31 1012.51 1012.66 1012.80 1013.01 1013.19 1013.35 1013.53 1013.59 1013.63 1013.79 1013.82 1013.88 1013.85 1013.84 1013.70 1013.48 1012.77 1012.64 1013.45 1013.69 1013.76 1013.66 1013.89 1013.99
1003.16 1004.79 1005.79 1006.91 1007.42 1007.77 1008.18 1008.69 1009.05 1009.61 1010.00 1010.31 1010.53 1010.81 1011.17 1011.49 1011.81 1012.13 1012.44 1012.58 1012.68 1012.88 1013.10 1013.29 1013.44 1013.53 1013.60 1013.71 1013.81 1013.86 1013.91 1014.03 1013.89 1013.70 1012.98 1012.12 1012.14 1013.24 1013.68 1013.79 1013.89 1013.90 1014.06
1003.39 1004.61 1005.43 1006.74 1007.31 1007.86 1008.15 1008.73 1009.16 1009.67 1010.03 1010.49 1010.83 1011.01 1011.19 1011.53 1011.70 1012.26 1012.60 1012.73 1012.81 1012.82 1013.00 1013.26 1013.49 1013.64 1013.70 1013.78 1013.96 1013.99 1014.12 1014.07 1013.95 1013.50 1012.11 1012.27 1012.46 1013.08 1013.59 1013.88 1013.83 1013.86 1014.02
1003.26 1004.30 1005.40 1006.58 1007.40 1007.87 1008.21 1008.57 1009.12 1009.64 1010.01 1010.41 1010.82 1011.17 1011.35 1011.52 1011.93 1012.19 1012.59 1012.85 1012.91 1012.98 1013.17 1013.41 1013.55 1013.64 1013.76 1013.90 1013.89 1014.04 1014.06 1014.05 1013.85 1012.71 1012.44 1012.70 1013.03 1013.43 1013.67 1013.86 1013.95 1013.94 1013.92
1002.82 1003.67 1005.35 1006.53 1007.39 1007.88 1008.25 1008.62 1009.00 1009.37 1009.92 1010.28 1010.66 1011.00 1011.42 1011.67 1011.98 1012.17 1012.43 1012.74 1012.96 1013.08 1013.26 1013.48 1013.64 1013.67 1013.73 1013.79 1013.80 1013.95 1014.04 1014.02 1013.62 1012.63 1012.06 1012.48 1012.62 1013.48 1013.70 1013.80 1013.81 1013.87 1013.94
1002.29 1003.25 1004.59 1006.63 1007.41 1007.79 1008.14 1008.40 1008.84 1009.22 1009.79 1010.22 1010.53 1010.82 1011.20 1011.57 1011.76 1012.18 1012.46 1012.73 1012.95 1013.04 1013.23 1013.53 1013.72 1013.78 1013.92 1013.87 1013.88 1013.93 1014.05 1014.10 1013.41 1012.42 1011.94 1012.02 1012.99 1013.51 1013.84 1013.79 1013.64 1013.65 1013.83
1001.84 1003.00 1004.22 1005.88 1007.00 1007.77 1008.14 1008.34 1008.67 1009.00 1009.35 1009.82 1010.34 1010.59 1011.00 1011.35 1011.67 1012.04 1012.27 1012.53 1012.83 1012.99 1013.22 1013.50 1013.65 1013.72 1013.98 1014.11 1014.17 1014.11 1014.08 1014.08 1013.72 1012.41 1011.47 1011.60 1012.69 1013.33 1013.84 1013.76 1013.51 1013.44 1013.73
1001.26 1002.33 1003.30 1004.91 1006.19 1006.89 1007.54 1008.37 1008.62 1009.02 1009.29 1009.60 1009.97 1010.38 1010.74 1011.24 1011.58 1011.85 1012.11 1012.38 1012.62 1012.83 1013.05 1013.24 1013.41 1013.63 1013.86 1013.88 1013.99 1014.03 1014.08 1014.03 1013.62 1012.69 1011.70 1011.89 1012.67 1013.04 1013.61 1013.78 1013.52 1013.55 1013.75
1000.63 1001.65 1002.73 1003.80 1005.26 1005.89 1006.26 1007.32 1008.61 1009.04 1009.35 1009.65 1009.83 1010.17 1010.53 1010.62 1010.94 1011.26 1011.52 1011.66 1012.25 1012.65 1012.80 1012.83 1012.94 1013.28 1013.71 1013.66 1013.47 1013.73 1013.87 1013.16 1012.14 1011.61 1011.36 1012.48 1012.71 1012.93 1013.32 1013.73 1013.69 1013.66 1013.76
1000.36 1001.16 1002.22 1003.44 1004.24 1005.05 1005.21 1005.77 1007.42 1008.10 1008.55 1008.91 1009.10 1009.44 1009.94 1009.82 1009.93 1010.27 1010.65 1011.34 1011.89 1012.45 1012.62 1012.36 1012.01 1012.03 1013.00 1012.67 1012.64 1013.39 1012.95 1012.12 1011.31 1011.26 1011.13 1012.43 1012.73 1012.96 1013.21 1013.55 1013.72 1013.74 1013.76
999.89 1000.42 1001.10 1002.79 1003.94 1004.28 1004.66 1005.04 1006.07 1006.81 1007.52 1007.97 1008.24 1008.57 1008.86 1009.08 1009.25 1009.47 1009.78 1010.66 1011.20 1011.86 1011.78 1012.15 1012.31 1012.13 1011.57 1011.81 1010.64 1011.25 1011.03 1011.17 1011.32 1010.91 1011.74 1012.19 1012.66 1012.95 1013.14 1013.31 1013.55 1013.66 1013.69
999.74 1000.31 1001.04 1002.11 1003.46 1004.32 1004.28 1004.67 1004.96 1005.49 1006.14 1006.74 1007.14 1007.79 1008.11 1008.51 1008.58 1008.56 1008.86 1009.21 1010.11 1010.35 1010.79 1010.79 1010.80 1011.03 1011.04 1010.73 1010.86 1010.51 1010.92 1011.10 1010.76 1010.57 1011.08 1011.74 1012.26 1012.73 1013.01 1013.18 1013.29 1013.47 1013.54
1000.60 1000.74 1001.06 1001.81 1002.84 1003.83 1004.45 1004.03 1004.28 1004.57 1004.78 1005.23 1005.74 1006.48 1007.13 1007.38 1007.78 1008.15 1008.19 1008.29 1008.69 1009.22 1009.95 1009.82 1010.00 1010.22 1010.33 1010.46 1010.77 1010.56 1010.76 1010.66 1010.70 1010.69 1010.88 1011.67 1011.97 1012.34 1012.72 1012.87 1013.03 1013.16 1013.28
1000.94 1000.94 1001.07 1001.31 1002.19 1003.29 1003.68 1003.91 1003.80 1004.15 1003.93 1004.35 1004.59 1004.86 1005.90 1006.33 1006.66 1007.08 1007.62 1007.80 1007.86 1008.42 1008.54 1009.01 1009.16 1009.27 1010.02 1010.11 1010.42 1010.35 1010.32 1010.31 1010.44 1010.67 1010.76 1011.45 1011.74 1011.91 1012.20 1012.48 1012.68 1012.84 1012.93
1000.38 1000.60 1000.91 1001.38 1001.71 1002.41 1003.02 1003.39 1003.67 1003.41 1003.61 1003.66 1003.60 1004.07 1004.64 1005.65 1005.92 1006.24 1006.67 1007.26 1007.41 1007.51 1008.20 1008.46 1008.92 1009.15 1009.32 1009.92 1009.77 1009.52 1010.00 1010.37 1010.63 1010.49 1010.58 1010.15 1011.27 1011.39 1011.79 1011.96 1012.23 1012.52 1012.59
999.90 1000.14 1000.64 1000.70 1000.83 1001.71 1002.24 1002.69 1002.86 1002.74 1002.84 1002.77 1002.96 1003.09 1003.80 1004.47 1005.21 1005.71 1006.06 1006.49 1006.86 1007.21 1007.54 1008.50 1008.61 1008.59 1008.84 1009.22 1009.09 1009.45 1010.12 1010.32 1010.29 1010.25 1010.36 1009.88 1010.61 1010.93 1011.42 1011.63 1011.84 1012.02 1012.14
999.43 1000.01 1000.47 1000.75 1000.82 1001.03 1001.35 1001.83 1002.07 1002.18 1002.23 1002.13 1002.01 1002.37 1002.90 1003.73 1004.48 1005.34 1005.55 1005.83 1006.46 1006.92 1007.21 1007.72 1007.84 1008.14 1008.56 1008.74 1008.81 1009.56 1010.02 1009.98 1009.65 1009.92 1009.61 1009.77 1010.02 1010.14 1010.83 1011.09 1011.31 1011.53 1011.75
999.50 999.81 1000.24 1000.60 1000.43 1000.58 1000.90 1001.34 1001.50 1001.36 1001.34 1001.53 1001.49 1001.65 1002.21 1003.14 1003.99 1004.83 1005.19 1005.48 1005.90 1006.42 1006.67 1007.18 1007.49 1008.03 1008.15 1008.21 1008.51 1009.06 1009.47 1009.27 1009.35 1009.08 1009.41 1009.65 1009.87 1009.78 1009.91 1010.48 1010.90 1011.05 1011.40
998.82 999.27 999.61 999.96 1000.13 1000.24 1000.33 1000.48 1000.57 1000.22 1000.15 1000.59 1000.99 1001.41 1001.83 1002.63 1003.54 1004.21 1004.80 1004.94 1005.42 1005.88 1006.30 1006.79 1007.29 1007.69 1008.12 1008.48 1008.40 1008.87 1008.40 1008.14 1008.38 1008.80 1009.06 1009.27 1009.45 1009.61 1009.88 1009.81 1010.55 1010.21 1011.05
997.93 998.58 998.97 999.18 999.46 999.66 999.58 1000.00 999.71 999.31 999.20 999.65 1000.43 1001.08 1001.67 1002.36 1003.10 1003.82 1004.33 1004.35 1005.10 1005.42 1006.03 1006.38 1007.11 1007.64 1007.95 1008.09 1008.10 1007.80 1007.53 1007.32 1007.37 1008.50 1008.52 1009.07 1009.45 1009.62 1009.71 1009.65 1009.88 1009.81 1010.42
996.89 997.40 997.83 998.28 998.59 998.86 999.03 999.14 999.48 999.70 999.69 999.15 999.84 1000.78 1001.52 1002.20 1003.00 1003.62 1004.23 1004.04 1004.53 1005.27 1005.40 1006.26 1007.11 1007.33 1007.22 1007.98 1008.19 1007.76 1007.33 1007.00 1008.04 1008.27 1008.33 1008.73 1009.31 1009.60 1009.52 1009.43 1009.38 1009.55 1010.83
995.89 996.38 996.58 997.12 997.59 997.98 998.45 998.64 998.65 998.83 998.89 998.94 999.37 1000.26 1001.44 1002.20 1002.99 1003.45 1003.94 1004.24 1004.42 1005.06 1004.96 1006.21 1006.64 1006.59 1007.21 1007.48 1007.61 1007.94 1007.94 1007.69 1007.58 1007.98 1008.33 1008.81 1009.17 1009.44 1009.39 1009.52 1009.78 1009.59 1010.58
994.59 994.79 995.30 996.03 996.77 997.36 997.60 998.10 998.26 998.53 998.37 998.81 999.27 1000.53 1001.45 1002.16 1002.75 1003.43 1003.87 1004.06 1004.46 1004.75 1005.19 1005.55 1005.99 1006.49 1006.90 1006.55 1006.62 1007.03 1007.58 1007.56 1007.93 1008.12 1008.22 1008.79 1009.36 1009.30 1009.30 1009.36 1009.51 1009.30 1009.54
993.73 994.07 994.60 995.30 996.04 996.75 997.13 997.52 997.81 997.93 998.09 998.60 999.37 1000.62 1001.27 1002.20 1002.85 1003.48 1003.77 1003.97 1004.31 1004.62 1004.72 1005.21 1005.78 1006.35 1006.56 1006.59 1006.58 1006.72 1006.97 1007.34 1007.85 1008.20 1008.34 1008.85 1008.99 1009.18 1009.23 1009.49 1009.39 1009.35 1009.35
Thickness
5869 5857 5841 5836 5831 5825 5821 5816 5812 5808 5804 5798 5793 5790 5788 5782 5777 5774 5769 5768 5763 5761 5758 5755 5752 5749 5747 5746 5743 5742 5740 5740 5738 5739 5737 5738 5737 5736 5735 5734 5734 5736 5734
5874 5855 5841 5834 5829 5821 5820 5814 5809 5805 5799 5795 5790 5788 5784 5780 5776 5770 5766 5763 5760 5757 5755 5752 5749 5746 5744 5741 5739 5737 5735 5733 5732 5733 5732 5733 5733 5731 5730 5729 5729 5731 5728
5867 5849 5837 5833 5827 5819 5814 5810 5806 5800 5795 5791 5786 5784 5779 5775 5772 5768 5763 5759 5756 5753 5750 5747 5744 5741 5740 5738 5736 5734 5732 5731 5728 5728 5728 5734 5734 5727 5724 5724 5725 5724 5725
5863 5847 5837 5827 5821 5816 5811 5807 5803 5797 5792 5787 5785 5781 5776 5771 5767 5761 5757 5755 5752 5749 5744 5741 5738 5736 5734 5733 5731 5729 5727 5724 5724 5724 5727 5733 5732 5723 5720 5719 5719 5719 5720
5857 5846 5837 5826 5819 5813 5810 5804 5800 5794 5790 5784 5779 5777 5773 5768 5765 5757 5752 5749 5747 5745 5742 5736 5733 5730 5728 5727 5725 5724 5720 5719 5718 5721 5730 5728 5725 5720 5716 5713 5714 5714 5715
5855 5845 5836 5825 5817 5812 5808 5804 5798 5793 5788 5783 5777 5772 5768 5764 5757 5754 5748 5744 5742 5740 5736 5731 5728 5726 5725 5722 5720 5717 5715 5715 5716 5722 5722 5719 5716 5713 5712 5709 5709 5710 5712
5853 5849 5833 5823 5814 5810 5806 5802 5799 5795 5787 5781 5776 5771 5764 5760 5754 5751 5746 5742 5738 5735 5732 5728 5725 5723 5721 5719 5717 5714 5711 5710 5710 5718 5721 5717 5715 5709 5707 5706 5706 5706 5706
5854 5850 5837 5818 5811 5808 5805 5801 5797 5793 5787 5780 5774 5770 5765 5758 5755 5749 5744 5739 5735 5732 5729 5724 5721 5720 5717 5716 5714 5711 5707 5704 5706 5712 5716 5716 5708 5704 5701 5701 5703 5703 5702
5858 5847 5839 5821 5811 5805 5802 5800 5797 5792 5788 5782 5775 5771 5764 5758 5753 5747 5744 5739 5734 5731 5727 5722 5719 5717 5712 5709 5706 5705 5703 5700 5700 5708 5715 5713 5705 5700 5696 5696 5698 5699 5697
5855 5848 5841 5827 5814 5808 5802 5796 5794 5789 5784 5781 5776 5769 5764 5758 5752 5747 5743 5737 5733 5729 5725 5722 5719 5714 5707 5705 5703 5701 5699 5697 5697 5702 5709 5707 5700 5697 5692 5690 5692 5692 5691
5850 5846 5841 5833 5819 5813 5808 5800 5788 5783 5779 5776 5774 5768 5763 5760 5753 5748 5742 5739 5732 5726 5724 5722 5720 5713 5707 5705 5705 5699 5696 5700 5705 5708 5707 5698 5695 5692 5688 5685 5685 5685 5685
5837 5839 5837 5829 5822 5816 5812 5808 5793 5785 5780 5774 5773 5769 5764 5762 5758 5751 5745 5737 5730 5724 5722 5721 5720 5719 5709 5707 5707 5698 5697 5702 5707 5705 5706 5693 5689 5686 5683 5681 5678 5678 5679
5838 5839 5838 5828 5819 5816 5812 5808 5800 5791 5782 5776 5773 5770 5768 5764 5759 5754 5747 5738 5732 5725 5723 5717 5713 5714 5716 5710 5713 5706 5708 5704 5701 5703 5697 5691 5685 5680 5678 5676 5674 5673 5673
5835 5833 5831 5826 5818 5809 5810 5806 5803 5796 5790 5783 5778 5772 5768 5764 5761 5757 5752 5745 5737 5733 5726 5723 5722 5718 5715 5714 5709 5706 5702 5699 5699 5699 5695 5690 5682 5677 5673 5671 5670 5670 5670
5822 5825 5824 5822 5818 5810 5802 5807 5804 5798 5796 5791 5784 5778 5771 5768 5762 5756 5752 5747 5743 5737 5729 5727 5725 5720 5717 5712 5705 5702 5699 5697 5695 5694 5688 5684 5680 5674 5670 5667 5665 5666 5667
5814 5817 5820 5818 5815 5809 5803 5802 5800 5797 5798 5793 5789 5785 5779 5774 5766 5759 5752 5748 5744 5738 5735 5728 5725 5722 5715 5710 5703 5702 5700 5696 5693 5690 5687 5678 5677 5673 5670 5665 5663 5662 5664
5812 5816 5816 5814 5810 5808 5803 5799 5796 5797 5794 5791 5791 5786 5782 5773 5766 5760 5754 5746 5743 5739 5733 5728 5722 5717 5713 5707 5704 5703 5698 5692 5687 5685 5683 5683 5674 5673 5668 5665 5661 5659 5661
5812 5812 5813 5816 5812 5806 5801 5797 5795 5796 5794 5793 5791 5789 5782 5775 5765 5758 5752 5747 5743 5738 5733 5721 5716 5714 5711 5705 5703 5699 5691 5687 5685 5682 5680 5681 5673 5671 5666 5662 5660 5658 5659
5808 5807 5806 5807 5806 5802 5801 5798 5794 5793 5792 5792 5792 5790 5783 5775 5765 5755 5751 5747 5741 5735 5730 5722 5715 5713 5705 5702 5699 5692 5686 5683 5684 5680 5681 5677 5672 5670 5666 5662 5659 5658 5658
5800 5801 5801 5800 5802 5800 5796 5792 5791 5790 5791 5790 5790 5787 5782 5774 5764 5755 5748 5745 5739 5732 5727 5722 5715 5709 5704 5699 5695 5688 5684 5684 5681 5681 5675 5671 5668 5667 5666 5661 5658 5656 5656
5798 5796 5798 5795 5795 5793 5791 5787 5785 5786 5789 5788 5786 5782 5780 5770 5761 5753 5745 5742 5737 5729 5723 5719 5711 5704 5697 5691 5688 5680 5684 5686 5684 5676 5673 5668 5665 5662 5660 5659 5655 5658 5652
5793 5792 5793 5791 5791 5790 5791 5787 5788 5790 5790 5787 5782 5777 5774 5765 5758 5749 5742 5740 5733 5727 5721 5716 5707 5697 5694 5691 5683 5683 5675 5678 5681 5671 5670 5662 5656 5655 5654 5656 5654 5654 5651
5786 5790 5790 5789 5790 5790 5791 5789 5784 5781 5779 5779 5774 5769 5764 5759 5751 5744 5738 5737 5732 5723 5719 5711 5702 5694 5690 5684 5682 5678 5670 5666 5661 5665 5662 5657 5649 5647 5651 5653 5653 5650 5645
5785 5788 5791 5792 5791 5790 5788 5781 5778 5773 5768 5771 5769 5766 5757 5752 5744 5740 5734 5730 5727 5719 5718 5706 5701 5697 5688 5678 5679 5675 5671 5667 5658 5651 5653 5648 5644 5642 5644 5646 5645 5649 5643
5787 5791 5793 5792 5789 5785 5784 5779 5774 5769 5771 5770 5766 5755 5749 5744 5741 5734 5729 5726 5720 5716 5711 5705 5699 5691 5686 5684 5680 5673 5666 5664 5657 5647 5640 5636 5635 5637 5640 5642 5643 5650 5652
5786 5788 5789 5787 5784 5781 5779 5775 5771 5769 5766 5763 5757 5747 5742 5737 5732 5727 5724 5720 5716 5711 5708 5703 5695 5687 5681 5680 5676 5671 5665 5656 5648 5642 5638 5631 5629 5630 5635 5635 5643 5648 5654